Zurück zum Katalog

STARLINK-5907

AktivKommunikationVLEO
NORAD 56021·PAYLOAD·🇺🇸 United States

Gestartet Mar 24, 2023 von Cape Canaveral Space Force Station

Loading…

Nächste Überflüge (nächste 24 Stunden)

TLE

AktuellSource: CelesTrak SupGP

Epoche: Sep 14, 2026, 22:33 UTC

1 56021C 23042AM  26257.94006944  .00053321  00000+0  19303-2 0  2571
2 56021  43.0020  56.6019 0002547 266.2167 214.0111 15.27567382    17

Verfolge STARLINK-5907 in Echtzeit mit AllMySat

Download on the App Store